Retour au catalogue

THOR AGENA B DEB

ActifLEO
NORAD 1951·DEBRIS·🇺🇸 United States

Lancé Nov 29, 1965 depuis Vandenberg Space Force Base

Loading…

Prochains Passages (prochaines 24 heures)

TLE

FraisSource: Space-Track

Époque: Sep 14, 2026, 06:09 UTC

1 01951U 65098G   26257.25648950  .00006761  00000-0  12174-2 0  9992
2 01951  79.6096 209.7576 0762106  35.5873 329.3696 13.59053344819726

Suivez THOR AGENA B DEB en temps réel avec AllMySat

Download on the App Store